Radiation Dose at Monitoring Post of Fukushima Daini Nuclear Power Station
Date,Time,MP-1(microSv/h),MP-2(microSv/h),MP-3(microSv/h),MP-4(microSv/h),MP-5(microSv/h),MP-6(microSv/h),MP-7(microSv/h),Wind Direction,Wind Velocity(m/s),Rain
2017/11/23,00:00,0.338,0.218,0.361,0.337,0.316,0.177,0.106,south-southwest,8.1,Yes
2017/11/23,00:10,0.337,0.219,0.360,0.337,0.315,0.176,0.105,south-southwest,7.7,Yes
2017/11/23,00:20,0.338,0.220,0.359,0.338,0.316,0.177,0.106,south-southwest,7.5,Yes
2017/11/23,00:30,0.338,0.218,0.359,0.336,0.314,0.177,0.105,south-southwest,7.0,Yes
2017/11/23,00:40,0.338,0.217,0.357,0.338,0.315,0.176,0.105,south-southwest,6.4,Yes
2017/11/23,00:50,0.338,0.217,0.359,0.336,0.316,0.177,0.105,south-southwest,6.3,Yes
2017/11/23,01:00,0.339,0.217,0.359,0.336,0.312,0.176,0.104,south-southwest,7.0,Yes
2017/11/23,01:10,0.338,0.217,0.358,0.337,0.317,0.175,0.104,south-southwest,5.5,No
2017/11/23,01:20,0.334,0.217,0.358,0.334,0.315,0.176,0.104,south-southwest,3.9,Yes
2017/11/23,01:30,0.335,0.216,0.358,0.337,0.314,0.173,0.103,south,4.6,Yes
2017/11/23,01:40,0.335,0.217,0.358,0.336,0.316,0.175,0.103,south-southeast,5.7,Yes
2017/11/23,01:50,0.335,0.216,0.360,0.334,0.314,0.175,0.103,south-southeast,5.8,Yes
2017/11/23,02:00,0.338,0.216,0.357,0.337,0.316,0.176,0.104,south,5.7,Yes
2017/11/23,02:10,0.336,0.217,0.357,0.335,0.316,0.175,0.105,south,4.9,Yes
2017/11/23,02:20,0.336,0.216,0.360,0.335,0.316,0.176,0.105,south,3.7,Yes
2017/11/23,02:30,0.338,0.216,0.358,0.338,0.316,0.175,0.105,south,2.9,Yes
2017/11/23,02:40,0.336,0.219,0.358,0.335,0.314,0.175,0.105,south-southwest,2.0,Yes
2017/11/23,02:50,0.338,0.217,0.359,0.333,0.317,0.177,0.105,southwest,1.1,Yes
2017/11/23,03:00,0.337,0.217,0.357,0.336,0.314,0.175,0.105,west-southwest,1.4,Yes
2017/11/23,03:10,0.336,0.218,0.358,0.335,0.314,0.178,0.105,west,2.1,Yes
2017/11/23,03:20,0.338,0.217,0.357,0.333,0.315,0.175,0.106,west,2.5,Yes
2017/11/23,03:30,0.335,0.218,0.355,0.334,0.313,0.176,0.105,west-northwest,2.0,Yes
2017/11/23,03:40,0.335,0.217,0.356,0.333,0.314,0.176,0.106,west-northwest,1.6,Yes
2017/11/23,03:50,0.336,0.216,0.355,0.332,0.313,0.176,0.107,west-northwest,1.5,Yes
2017/11/23,04:00,0.335,0.218,0.353,0.334,0.313,0.175,0.106,northwest,1.6,Yes
2017/11/23,04:10,0.336,0.216,0.354,0.333,0.316,0.177,0.106,north-northwest,1.2,Yes
2017/11/23,04:20,0.337,0.216,0.354,0.332,0.314,0.176,0.107,-,CALM,Yes
2017/11/23,04:30,0.334,0.216,0.352,0.334,0.313,0.176,0.107,southwest,1.1,Yes
2017/11/23,04:40,0.333,0.217,0.352,0.330,0.315,0.176,0.106,south-southwest,2.4,Yes
2017/11/23,04:50,0.334,0.215,0.350,0.329,0.312,0.176,0.106,southwest,3.1,Yes
2017/11/23,05:00,0.331,0.217,0.348,0.331,0.313,0.174,0.107,south-southwest,1.6,Yes
2017/11/23,05:10,0.333,0.216,0.350,0.330,0.314,0.176,0.107,south,1.8,Yes
2017/11/23,05:20,0.334,0.216,0.351,0.331,0.314,0.176,0.107,south-southeast,1.8,Yes
2017/11/23,05:30,0.332,0.216,0.350,0.332,0.315,0.174,0.107,east-southeast,1.1,Yes
2017/11/23,05:40,0.334,0.216,0.351,0.331,0.312,0.176,0.106,east-southeast,0.6,Yes
2017/11/23,05:50,0.331,0.215,0.352,0.330,0.313,0.175,0.105,east-southeast,1.0,Yes
2017/11/23,06:00,0.332,0.216,0.350,0.331,0.314,0.175,0.106,southeast,1.2,Yes
2017/11/23,06:10,0.333,0.216,0.351,0.329,0.312,0.174,0.106,south-southwest,0.8,Yes
2017/11/23,06:20,0.331,0.215,0.351,0.331,0.315,0.174,0.107,southwest,1.8,Yes
2017/11/23,06:30,0.333,0.217,0.349,0.331,0.314,0.176,0.107,-,CALM,Yes
2017/11/23,06:40,0.332,0.216,0.351,0.330,0.312,0.175,0.107,west-northwest,2.1,Yes
2017/11/23,06:50,0.330,0.216,0.349,0.329,0.314,0.175,0.108,west-northwest,1.4,Yes
2017/11/23,07:00,0.332,0.216,0.349,0.330,0.312,0.176,0.107,northwest,1.7,Yes
2017/11/23,07:10,0.332,0.216,0.349,0.329,0.314,0.175,0.108,northwest,1.8,Yes
2017/11/23,07:20,0.332,0.216,0.348,0.329,0.314,0.173,0.107,west-northwest,0.8,Yes
2017/11/23,07:30,0.331,0.216,0.348,0.330,0.313,0.174,0.107,north,0.7,Yes
2017/11/23,07:40,0.330,0.214,0.348,0.328,0.313,0.174,0.106,north-northeast,1.7,Yes
2017/11/23,07:50,0.330,0.215,0.348,0.327,0.312,0.172,0.105,north-northeast,0.9,Yes
2017/11/23,08:00,0.331,0.215,0.349,0.329,0.312,0.173,0.105,north-northeast,1.0,Yes
2017/11/23,08:10,0.329,0.214,0.349,0.328,0.313,0.174,0.106,north-northeast,0.7,Yes
2017/11/23,08:20,0.331,0.216,0.348,0.328,0.313,0.174,0.106,-,CALM,Yes
2017/11/23,08:30,0.332,0.214,0.347,0.328,0.312,0.174,0.106,north-northwest,2.1,Yes
2017/11/23,08:40,0.328,0.214,0.348,0.327,0.311,0.175,0.106,northwest,2.5,Yes
2017/11/23,08:50,0.330,0.217,0.346,0.329,0.312,0.173,0.107,northwest,2.5,Yes
2017/11/23,09:00,0.333,0.217,0.349,0.329,0.315,0.176,0.108,-,CALM,Yes
2017/11/23,09:10,0.333,0.220,0.349,0.329,0.313,0.175,0.109,north,2.7,Yes
2017/11/23,09:20,0.333,0.218,0.347,0.329,0.315,0.176,0.109,-,CALM,Yes
2017/11/23,09:30,0.331,0.217,0.349,0.328,0.315,0.177,0.108,-,CALM,Yes
2017/11/23,09:40,0.330,0.217,0.348,0.327,0.314,0.175,0.108,north-northwest,2.8,Yes
2017/11/23,09:50,0.330,0.215,0.347,0.327,0.315,0.174,0.107,north-northwest,2.9,Yes
2017/11/23,10:00,0.329,0.214,0.348,0.327,0.312,0.173,0.107,north-northwest,3.1,Yes
2017/11/23,10:10,0.329,0.215,0.346,0.325,0.313,0.173,0.107,north-northwest,3.4,Yes
2017/11/23,10:20,0.328,0.213,0.345,0.325,0.313,0.173,0.107,-,CALM,Yes
2017/11/23,10:30,0.328,0.214,0.347,0.325,0.311,0.172,0.105,north-northwest,3.4,Yes
2017/11/23,10:40,0.328,0.214,0.345,0.325,0.313,0.174,0.106,north-northwest,4.0,Yes
2017/11/23,10:50,0.328,0.213,0.345,0.326,0.313,0.172,0.106,north-northwest,5.1,Yes
2017/11/23,11:00,0.329,0.214,0.345,0.325,0.311,0.173,0.106,northwest,5.3,Yes
2017/11/23,11:10,0.328,0.213,0.344,0.326,0.313,0.172,0.106,-,CALM,Yes
2017/11/23,11:20,0.328,0.213,0.346,0.326,0.312,0.173,0.106,north-northwest,4.2,Yes
2017/11/23,11:30,0.332,0.216,0.345,0.324,0.313,0.174,0.107,north,4.6,Yes
2017/11/23,11:40,0.330,0.216,0.345,0.327,0.314,0.173,0.108,-,CALM,Yes
2017/11/23,11:50,0.331,0.216,0.345,0.327,0.313,0.175,0.108,-,CALM,Yes
2017/11/23,12:00,0.332,0.218,0.347,0.328,0.317,0.175,0.109,-,CALM,Yes
2017/11/23,12:10,0.332,0.217,0.345,0.327,0.314,0.175,0.109,north-northwest,6.6,Yes
2017/11/23,12:20,0.331,0.218,0.348,0.327,0.315,0.176,0.110,north-northwest,7.5,No
2017/11/23,12:30,0.333,0.219,0.348,0.326,0.315,0.174,0.110,north-northwest,8.2,No
2017/11/23,12:40,0.331,0.217,0.346,0.328,0.313,0.175,0.109,north-northwest,8.3,No
2017/11/23,12:50,0.331,0.218,0.347,0.326,0.315,0.175,0.109,north-northwest,6.2,Yes
2017/11/23,13:00,0.332,0.216,0.346,0.326,0.314,0.174,0.107,north-northwest,6.0,Yes
2017/11/23,13:10,0.330,0.214,0.345,0.326,0.314,0.173,0.107,north,4.0,No
2017/11/23,13:20,0.330,0.214,0.346,0.325,0.314,0.172,0.106,north,5.1,No
2017/11/23,13:30,0.329,0.214,0.344,0.324,0.311,0.170,0.105,north-northwest,5.6,No
2017/11/23,13:40,0.327,0.210,0.343,0.325,0.312,0.170,0.104,north,6.3,No
2017/11/23,13:50,0.327,0.212,0.344,0.323,0.311,0.169,0.103,north,7.4,No
2017/11/23,14:00,0.327,0.210,0.342,0.323,0.310,0.169,0.102,north,7.3,No
2017/11/23,14:10,0.326,0.209,0.342,0.322,0.312,0.168,0.102,north,6.2,No
2017/11/23,14:20,0.327,0.210,0.343,0.320,0.310,0.168,0.102,north-northwest,6.4,No
2017/11/23,14:30,0.324,0.210,0.341,0.322,0.309,0.167,0.101,north,6.5,No
2017/11/23,14:40,0.326,0.210,0.342,0.320,0.310,0.166,0.101,north,7.7,No
2017/11/23,14:50,0.326,0.209,0.341,0.322,0.308,0.167,0.101,north,7.4,No
2017/11/23,15:00,0.325,0.209,0.341,0.322,0.310,0.167,0.101,north,6.8,No
2017/11/23,15:10,0.325,0.210,0.342,0.320,0.309,0.167,0.100,north,7.8,No
2017/11/23,15:20,0.326,0.209,0.341,0.321,0.308,0.167,0.100,north-northwest,9.8,No
2017/11/23,15:30,0.325,0.209,0.339,0.321,0.310,0.167,0.100,north,8.2,No
2017/11/23,15:40,0.327,0.209,0.343,0.320,0.308,0.167,0.100,north,7.4,No
2017/11/23,15:50,0.325,0.209,0.342,0.322,0.310,0.167,0.100,north,8.1,No
2017/11/23,16:00,0.326,0.209,0.342,0.321,0.311,0.165,0.101,north,8.4,No
2017/11/23,16:10,0.327,0.210,0.343,0.321,0.310,0.167,0.101,north,7.0,No
2017/11/23,16:20,0.326,0.208,0.341,0.322,0.311,0.168,0.100,north-northwest,7.3,No
2017/11/23,16:30,0.326,0.209,0.344,0.322,0.310,0.168,0.101,northwest,7.9,No
2017/11/23,16:40,0.329,0.209,0.342,0.320,0.310,0.168,0.101,northwest,7.5,No
2017/11/23,16:50,0.327,0.209,0.343,0.323,0.309,0.169,0.101,northwest,6.5,No
2017/11/23,17:00,0.327,0.209,0.341,0.321,0.311,0.168,0.100,north-northwest,6.2,No
2017/11/23,17:10,0.328,0.210,0.344,0.322,0.309,0.169,0.100,north-northwest,5.9,No
2017/11/23,17:20,0.326,0.209,0.343,0.321,0.310,0.168,0.100,north-northwest,6.0,No
2017/11/23,17:30,0.327,0.209,0.344,0.323,0.309,0.168,0.100,northwest,5.9,No
2017/11/23,17:40,0.326,0.209,0.343,0.323,0.310,0.167,0.100,northwest,6.6,No
2017/11/23,17:50,0.326,0.209,0.343,0.321,0.309,0.167,0.100,north-northwest,7.4,No
2017/11/23,18:00,0.327,0.209,0.343,0.323,0.310,0.168,0.100,north-northwest,7.2,No
2017/11/23,18:10,0.329,0.210,0.344,0.321,0.309,0.168,0.100,north-northwest,6.7,No
2017/11/23,18:20,0.328,0.210,0.343,0.323,0.309,0.167,0.100,northwest,6.2,No
2017/11/23,18:30,0.327,0.210,0.341,0.323,0.309,0.167,0.100,northwest,7.9,No
2017/11/23,18:40,0.328,0.209,0.344,0.323,0.308,0.169,0.100,west-northwest,7.4,No
2017/11/23,18:50,0.327,0.210,0.344,0.322,0.309,0.166,0.099,northwest,6.6,No
2017/11/23,19:00,0.326,0.209,0.342,0.321,0.310,0.168,0.101,north-northwest,7.7,No
2017/11/23,19:10,0.329,0.208,0.344,0.323,0.309,0.168,0.100,northwest,7.6,No
2017/11/23,19:20,0.328,0.210,0.344,0.324,0.309,0.167,0.101,west-northwest,5.9,No
2017/11/23,19:30,0.328,0.209,0.344,0.322,0.309,0.168,0.100,west-northwest,7.0,No
2017/11/23,19:40,0.328,0.209,0.343,0.322,0.309,0.168,0.101,northwest,9.2,No
2017/11/23,19:50,0.328,0.209,0.344,0.321,0.308,0.168,0.100,west-northwest,7.3,No
2017/11/23,20:00,0.328,0.210,0.343,0.322,0.309,0.168,0.100,west-northwest,5.6,No
2017/11/23,20:10,0.328,0.209,0.343,0.323,0.311,0.168,0.101,west-northwest,5.6,No
2017/11/23,20:20,0.329,0.210,0.343,0.323,0.309,0.167,0.100,north-northwest,6.3,No
2017/11/23,20:30,0.328,0.211,0.344,0.322,0.307,0.169,0.100,north-northwest,5.3,No
2017/11/23,20:40,0.329,0.211,0.344,0.323,0.309,0.168,0.100,northwest,5.4,No
2017/11/23,20:50,0.329,0.209,0.345,0.322,0.310,0.168,0.100,northwest,7.8,No
2017/11/23,21:00,0.328,0.210,0.345,0.323,0.308,0.169,0.100,northwest,7.5,No
2017/11/23,21:10,0.329,0.211,0.345,0.323,0.309,0.168,0.101,north-northwest,6.4,No
2017/11/23,21:20,0.330,0.210,0.343,0.322,0.310,0.169,0.101,north-northwest,5.5,No
2017/11/23,21:30,0.330,0.211,0.345,0.324,0.310,0.167,0.101,northwest,5.5,No
2017/11/23,21:40,0.329,0.210,0.345,0.324,0.308,0.168,0.101,northwest,6.2,No
2017/11/23,21:50,0.330,0.211,0.345,0.324,0.310,0.168,0.101,north-northwest,8.5,No
2017/11/23,22:00,0.329,0.211,0.346,0.323,0.311,0.168,0.100,north-northwest,6.7,No
2017/11/23,22:10,0.330,0.211,0.347,0.325,0.309,0.168,0.101,north-northwest,6.2,No
2017/11/23,22:20,0.330,0.211,0.345,0.325,0.309,0.169,0.102,north-northwest,5.2,No
2017/11/23,22:30,0.330,0.211,0.343,0.324,0.310,0.169,0.101,north,4.9,No
2017/11/23,22:40,0.330,0.211,0.345,0.324,0.309,0.168,0.101,north-northwest,11.2,No
2017/11/23,22:50,0.330,0.211,0.346,0.324,0.309,0.168,0.101,north-northwest,10.4,No
2017/11/23,23:00,0.329,0.212,0.345,0.324,0.309,0.169,0.101,north-northwest,9.6,No
2017/11/23,23:10,0.331,0.210,0.346,0.323,0.310,0.169,0.100,north-northwest,10.0,No
2017/11/23,23:20,0.331,0.213,0.346,0.324,0.310,0.168,0.101,north-northwest,8.7,No
2017/11/23,23:30,0.330,0.212,0.348,0.325,0.310,0.168,0.101,north-northwest,7.8,No
2017/11/23,23:40,0.329,0.211,0.348,0.325,0.310,0.169,0.101,north-northwest,6.0,No
2017/11/23,23:50,0.331,0.212,0.346,0.325,0.312,0.168,0.102,west-northwest,3.1,No
